• In Österreich
  • Länderverzeichnis
  • Für 7 Tage
  • Wassertemperatur
  • Satellitenkarten
  • Wetterkarte
  • News
  • Widgets
  • user-avatar
    Anmelden

    Stündliche Wetter Turgutlu

    Heute, 22 Juli, Sonntag

    Zeit Temperatur Niederschläge Wind Luftdruck Luftfeuchtigkeit
    00:00 +27°C° 0 mm 2 m/S 750 mmHg 65%
    01:00 +26°C° 0 mm 2 m/S 750 mmHg 67%
    02:00 +26°C° 0 mm 2 m/S 750 mmHg 68%
    03:00 +25°C° 0 mm 1 m/S 750 mmHg 70%
    04:00 +25°C° 0 mm 1 m/S 750 mmHg 71%
    05:00 +24°C° 0 mm 1 m/S 750 mmHg 72%
    06:00 +27°C° 0 mm 2 m/S 750 mmHg 64%
    07:00 +29°C° 0 mm 2 m/S 750 mmHg 56%
    08:00 +31°C° 0 mm 2 m/S 750 mmHg 48%
    09:00 +33°C° 0 mm 3 m/S 750 mmHg 41%
    10:00 +35°C° 0 mm 3 m/S 750 mmHg 34%
    11:00 +37°C° 0 mm 3 m/S 750 mmHg 27%
    12:00 +38°C° 0 mm 4 m/S 750 mmHg 25%
    13:00 +40°C° 0 mm 4 m/S 749 mmHg 24%
    14:00 +41°C° 0 mm 5 m/S 749 mmHg 22%
    15:00 +41°C° 0 mm 4 m/S 749 mmHg 22%
    16:00 +41°C° 0 mm 4 m/S 748 mmHg 23%
    17:00 +40°C° 0 mm 4 m/S 748 mmHg 23%
    18:00 +37°C° 0 mm 3 m/S 748 mmHg 29%
    19:00 +35°C° 0 mm 3 m/S 748 mmHg 35%
    20:00 +31°C° 0 mm 2 m/S 748 mmHg 41%
    21:00 +30°C° 0 mm 1 m/S 748 mmHg 44%
    22:00 +29°C° 0 mm 1 m/S 749 mmHg 48%
    23:00 +28°C° 0 mm 1 m/S 749 mmHg 52%

    Morgen, 23 Juli, Montag

    Zeit Temperatur Niederschläge Wind Luftdruck Luftfeuchtigkeit
    00:00 +28°C° 0 mm 1 m/S 748 mmHg 53%
    01:00 +28°C° 0 mm 1 m/S 748 mmHg 55%
    02:00 +27°C° 0 mm 1 m/S 748 mmHg 56%
    03:00 +27°C° 0 mm 1 m/S 747 mmHg 57%
    04:00 +27°C° 0 mm 1 m/S 747 mmHg 57%
    05:00 +26°C° 0 mm 1 m/S 747 mmHg 58%
    06:00 +28°C° 0 mm 1 m/S 747 mmHg 51%
    07:00 +31°C° 0 mm 1 m/S 747 mmHg 44%
    08:00 +33°C° 0 mm 1 m/S 747 mmHg 38%
    09:00 +36°C° 0 mm 2 m/S 746 mmHg 33%
    10:00 +38°C° 0 mm 2 m/S 746 mmHg 28%
    11:00 +40°C° 0 mm 3 m/S 746 mmHg 23%
    12:00 +41°C° 0 mm 4 m/S 746 mmHg 22%
    13:00 +42°C° 0 mm 5 m/S 745 mmHg 20%
    14:00 +42°C° 0 mm 6 m/S 745 mmHg 19%
    15:00 +41°C° 0 mm 6 m/S 745 mmHg 21%
    16:00 +40°C° 0 mm 6 m/S 744 mmHg 23%
    17:00 +39°C° 0 mm 6 m/S 744 mmHg 25%
    18:00 +36°C° 0 mm 4 m/S 744 mmHg 29%
    19:00 +34°C° 0 mm 3 m/S 744 mmHg 33%
    20:00 +31°C° 0 mm 2 m/S 744 mmHg 37%
    21:00 +30°C° 0 mm 2 m/S 744 mmHg 39%
    22:00 +29°C° 0 mm 2 m/S 744 mmHg 41%
    23:00 +29°C° 0 mm 2 m/S 744 mmHg 43%

    übermorgen, 24 Juli, Dienstag

    Zeit Temperatur Niederschläge Wind Luftdruck Luftfeuchtigkeit
    00:00 +28°C° 0 mm 2 m/S 744 mmHg 44%
    01:00 +28°C° 0 mm 2 m/S 743 mmHg 45%
    02:00 +27°C° 0 mm 3 m/S 743 mmHg 46%
    03:00 +27°C° 0,1 mm 2 m/S 743 mmHg 48%
    04:00 +26°C° 0,1 mm 2 m/S 742 mmHg 51%
    05:00 +25°C° 0,1 mm 2 m/S 742 mmHg 54%
    06:00 +27°C° 0,1 mm 3 m/S 742 mmHg 53%
    07:00 +29°C° 0,1 mm 3 m/S 743 mmHg 52%
    08:00 +32°C° 0,1 mm 4 m/S 743 mmHg 50%
    09:00 +33°C° 0,2 mm 4 m/S 743 mmHg 46%
    10:00 +34°C° 0,2 mm 5 m/S 743 mmHg 42%
    11:00 +35°C° 0,2 mm 5 m/S 744 mmHg 37%
    12:00 +36°C° 0 mm 5 m/S 744 mmHg 36%
    13:00 +36°C° 0 mm 6 m/S 743 mmHg 35%
    14:00 +36°C° 0 mm 6 m/S 743 mmHg 33%
    15:00 +35°C° 0 mm 6 m/S 744 mmHg 35%
    16:00 +35°C° 0 mm 5 m/S 744 mmHg 36%
    17:00 +34°C° 0 mm 5 m/S 744 mmHg 37%
    18:00 +32°C° 0,2 mm 4 m/S 744 mmHg 45%
    19:00 +29°C° 0,2 mm 3 m/S 744 mmHg 52%
    20:00 +27°C° 0,2 mm 2 m/S 745 mmHg 59%
    21:00 +26°C° 0,1 mm 2 m/S 745 mmHg 64%
    22:00 +26°C° 0,1 mm 1 m/S 745 mmHg 69%
    23:00 +25°C° 0,1 mm 1 m/S 745 mmHg 73%

    25 Juli, Mittwoch

    Zeit Temperatur Niederschläge Wind Luftdruck Luftfeuchtigkeit
    00:00 +24°C° 0,1 mm 1 m/S 745 mmHg 75%
    01:00 +24°C° 0,1 mm 1 m/S 745 mmHg 78%
    02:00 +22°C° 0,1 mm 0 m/S 745 mmHg 80%
    03:00 +21°C° 0 mm 0 m/S 745 mmHg 82%
    04:00 +21°C° 0 mm 0 m/S 745 mmHg 83%
    05:00 +21°C° 0 mm 0 m/S 746 mmHg 85%
    06:00 +22°C° 0 mm 0 m/S 746 mmHg 77%
    07:00 +24°C° 0 mm 0 m/S 746 mmHg 69%
    08:00 +26°C° 0 mm 0 m/S 746 mmHg 60%
    09:00 +28°C° 0 mm 0 m/S 746 mmHg 52%
    10:00 +32°C° 0 mm 1 m/S 746 mmHg 45%
    11:00 +33°C° 0 mm 1 m/S 746 mmHg 37%
    12:00 +35°C° 0 mm 2 m/S 746 mmHg 35%
    13:00 +35°C° 0 mm 2 m/S 746 mmHg 34%
    14:00 +36°C° 0 mm 3 m/S 745 mmHg 32%
    15:00 +35°C° 0 mm 3 m/S 745 mmHg 34%
    16:00 +35°C° 0 mm 3 m/S 746 mmHg 36%
    17:00 +34°C° 0 mm 4 m/S 746 mmHg 38%
    18:00 +33°C° 0 mm 3 m/S 746 mmHg 43%
    19:00 +30°C° 0 mm 3 m/S 746 mmHg 49%
    20:00 +29°C° 0 mm 2 m/S 746 mmHg 54%
    21:00 +28°C° 0 mm 2 m/S 746 mmHg 59%
    22:00 +27°C° 0 mm 2 m/S 747 mmHg 63%
    23:00 +26°C° 0 mm 1 m/S 747 mmHg 68%

    26 Juli, Donnerstag

    Zeit Temperatur Niederschläge Wind Luftdruck Luftfeuchtigkeit
    00:00 +26°C° 0 mm 1 m/S 747 mmHg 70%
    01:00 +25°C° 0 mm 1 m/S 747 mmHg 72%
    02:00 +25°C° 0 mm 1 m/S 747 mmHg 74%
    03:00 +24°C° 0 mm 1 m/S 747 mmHg 76%
    04:00 +24°C° 0 mm 1 m/S 747 mmHg 77%
    05:00 +24°C° 0 mm 1 m/S 747 mmHg 78%
    06:00 +26°C° 0 mm 1 m/S 747 mmHg 70%
    07:00 +28°C° 0 mm 1 m/S 747 mmHg 62%
    08:00 +30°C° 0 mm 1 m/S 747 mmHg 54%
    09:00 +31°C° 0 mm 1 m/S 747 mmHg 48%
    10:00 +33°C° 0 mm 1 m/S 747 mmHg 42%
    11:00 +35°C° 0 mm 1 m/S 747 mmHg 36%
    12:00 +36°C° 0 mm 2 m/S 747 mmHg 34%
    13:00 +37°C° 0 mm 3 m/S 747 mmHg 33%
    14:00 +37°C° 0 mm 3 m/S 746 mmHg 31%
    15:00 +37°C° 0 mm 3 m/S 746 mmHg 33%
    16:00 +36°C° 0 mm 4 m/S 747 mmHg 35%
    17:00 +36°C° 0 mm 4 m/S 747 mmHg 37%
    18:00 +34°C° 0,2 mm 4 m/S 747 mmHg 44%
    19:00 +31°C° 0,2 mm 3 m/S 747 mmHg 52%
    20:00 +29°C° 0,2 mm 3 m/S 748 mmHg 59%
    21:00 +28°C° 0,3 mm 2 m/S 748 mmHg 64%
    22:00 +27°C° 0,3 mm 2 m/S 748 mmHg 68%
    23:00 +26°C° 0,3 mm 1 m/S 748 mmHg 72%

    27 Juli, Freitag

    Zeit Temperatur Niederschläge Wind Luftdruck Luftfeuchtigkeit
    00:00 +26°C° 0,1 mm 1 m/S 748 mmHg 74%
    01:00 +26°C° 0,1 mm 1 m/S 748 mmHg 76%
    02:00 +25°C° 0,1 mm 1 m/S 748 mmHg 78%
    03:00 +25°C° 0,1 mm 1 m/S 748 mmHg 80%
    04:00 +24°C° 0,1 mm 1 m/S 748 mmHg 82%
    05:00 +24°C° 0,1 mm 1 m/S 748 mmHg 83%
    06:00 +26°C° 0 mm 1 m/S 749 mmHg 75%
    07:00 +28°C° 0 mm 1 m/S 749 mmHg 67%
    08:00 +30°C° 0 mm 1 m/S 749 mmHg 59%
    09:00 +31°C° 0 mm 1 m/S 748 mmHg 52%
    10:00 +34°C° 0 mm 2 m/S 748 mmHg 45%
    11:00 +36°C° 0 mm 2 m/S 748 mmHg 38%
    12:00 +37°C° 0 mm 2 m/S 748 mmHg 36%
    13:00 +37°C° 0 mm 3 m/S 748 mmHg 34%
    14:00 +38°C° 0 mm 3 m/S 747 mmHg 32%
    15:00 +37°C° 0,1 mm 3 m/S 747 mmHg 33%
    16:00 +37°C° 0,1 mm 4 m/S 747 mmHg 35%
    17:00 +37°C° 0,1 mm 4 m/S 747 mmHg 36%
    18:00 +35°C° 0,1 mm 3 m/S 748 mmHg 43%
    19:00 +33°C° 0,1 mm 3 m/S 748 mmHg 50%
    20:00 +30°C° 0,1 mm 3 m/S 748 mmHg 56%
    21:00 +29°C° 0,1 mm 2 m/S 748 mmHg 61%
    22:00 +28°C° 0,1 mm 2 m/S 748 mmHg 66%
    23:00 +27°C° 0,1 mm 2 m/S 748 mmHg 71%
    Mehr zeigen